Find Starlink 38271

NORAD ID: 100557 Int'l Des: 2026-200 Owner: SPXS Country: US Constellation: starlink operational

Current View

Loading 3D Globe...

About Starlink 38271

Starlink 38271 (NORAD 100557) is a starlink constellation satellite launched Sep 2, 2026 by SPXS of US. with a mass of 575.00 kg.

Upcoming Passes

Passes for default location (London). Set your location on the main map for personalized predictions.

Altitude History

Loading altitude history...

Two-Line Element Set

1 A0557U 26200Z 26255.32403029 .00206658 00000-0 98054-3 0 9996
2 A0557 69.9981 158.6566 0003242 278.1291 81.9544 15.82220705 1597
Epoch: Sep 12, 2026 • Age: 9 hours

Current Status

Altitude 329.1 km
Apogee / Perigee N/A
Velocity 7.71 km/s
Sub-Earth Point -17.27°S, 92.63°W
Launch Date Sep 2, 2026
Age 10 days
Type internet

Technical Details

Classification Payload
Mass 575.00 kg
Dry Mass 530.00 kg
Total Mass 575.00 kg
Length 0.30 m
Diameter 4.10 m
Span 29.00 m
Shape Box + pan
Manufacturer SPXS
Bus Type Starlink V2MO
Phase Status In Orbit
Owner/State SPXS/US

Most Searched